Location: Chisholm
(54.9102°N, 114.1701°W)
Time: 11:42:04
(UTC+00:00)

N. Korean satellite - Pass Details

Date: 08 December 2021
Orbit: 447 x 491 km, 97.3° (Epoch: 23 January)

Event Time Altitude Azimuth Distance (km) Brightness Sun altitude
Rises 13:50:52 0° 7° (N) 2,472 10.0 -15.4°
Reaches altitude 10° 13:53:03 10° 357° (N) 1,591 9.0 -15.1°
Maximum altitude 13:56:05 31° 294° (WNW) 810 7.1 -14.7°
Drops below altitude 10° 13:59:07 10° 230° (SW) 1,577 8.9 -14.3°
Sets 14:01:16 0° 220° (SW) 2,446 9.9 -14.0°
